Terug naar catalogus

CYGFM07

ActiefWeerVLEO
NORAD 41890·PAYLOAD·🇺🇸 United States

Gelanceerd Dec 15, 2016 vanaf Cape Canaveral Space Force Station

Loading…

Volgende Passages (komende 24 uur)

TLE

VersSource: Space-Track

Epoch: Sep 14, 2026, 14:24 UTC

1 41890U 16078G   26257.60022474  .00029818  00000-0  29344-3 0  9994
2 41890  34.9448 352.2232 0004489 337.7338  22.3194 15.64928653542993

Volg CYGFM07 in realtime met AllMySat

Download on the App Store